Location: Dalton
(34.7700°N, 84.9700°W)
Time: 14:56:10
(UTC-04:00)

Envisat - Pass Details

Date: 08 October 2017
Orbit: 764 x 766 km, 98.2° (Epoch: 23 October)

Event Time Altitude Azimuth Distance (km) Brightness Sun altitude
Exits shadow 22:21:38 21° 308° (NW) 1,655 5.2 -38.7°
Drops below altitude 10° 22:23:44 10° 326° (NW) 2,306 6.0 -39.1°
Sets 22:26:17 0° 336° (NNW) 3,236 6.8 -39.6°
